Simultaneous Nadir Overpasses (SNOs) Predictions

Prediction of SNOs between NOAA-19 and NPP Satellite Orbit:

Table of predicted SNOs for the next 14.0 days since TLE Epoch: 1/20/2024
Index Date (NOAA-19) Time (NOAA-19) Lat,Lon (NOAA-19) SZA (NOAA-19 ) Date (NPP) Time (NPP) Lat,Lon (NPP) SZA (NPP ) Distance(km) Time Diff (sec)
1 01/20/2024 20:43:09 -74.01, 38.09 85.56 01/20/2024 20:44:21 -74.02, 38.04 85.56 2.09 72
2 01/20/2024 21:34:02 74.03,-154.59 94.45 01/20/2024 21:35:07 74.03,-154.68 94.45 2.93 65
3 01/20/2024 22:25:07 -74.03, 12.66 85.55 01/20/2024 22:25:51 -74.03, 12.65 85.57 0.80 44
4 01/20/2024 23:16:00 74.05, 179.97 94.46 01/20/2024 23:16:37 74.04, 179.93 94.44 1.63 37
5 01/21/2024 00:07:05 -74.05, -12.78 85.55 01/21/2024 00:07:21 -74.03, -12.73 85.58 3.07 16
6 01/21/2024 00:57:58 74.07, 154.54 94.46 01/21/2024 00:58:07 74.04, 154.55 94.43 3.04 9
7 01/21/2024 01:49:03 -74.08, -38.21 85.55 01/21/2024 01:48:52 -74.08, -38.24 85.54 1.11 11
8 01/21/2024 02:39:56 74.09, 129.11 94.46 01/21/2024 02:39:38 74.10, 129.04 94.47 2.08 18
9 01/21/2024 03:31:01 -74.10, -63.64 85.55 01/21/2024 03:30:22 -74.09, -63.62 85.55 1.43 39
10 01/21/2024 04:21:54 74.11, 103.67 94.46 01/21/2024 04:21:08 74.10, 103.66 94.46 1.67 46
11 01/21/2024 05:12:59 -74.12, -89.08 85.54 01/21/2024 05:11:53 -74.14, -89.13 85.50 2.70 66
12 01/21/2024 06:03:52 74.14, 78.24 94.47 01/21/2024 06:02:39 74.15, 78.15 94.51 3.41 73



Historial Predications of SNOs between NOAA-19 and NPP
